Погода в Рованиеми

Финляндия     66°29′21″N   25°41′03″E
темп.,
°C
ветер,
м/с
пор.,
м/с
влажн.,
%
обл.,
%
осадки,
мм/ч
давл.,
гПа
погр.,
м
9 декабря, чт
чт923:00−16вюв009975 0.1 10239
02:00−14ю119776 0.1 102425
05:00−16юз1110078 0.0 102314
08:00−17ю1110094 0.1 102335
11:00−16ююв249861 0.0 102461
14:00−13ю3119782 0.1 1023247
17:00−11ю31290100 0.0 1022352
20:00−11ю4129182 0.0 1021325
10 декабря, пт
пт1023:00−9ю41492100 0.1 1021382
02:00−9ю41393100 0.1 1021395
05:00−10ю3119392 0.0 1021345
08:00−11ююв31191100 0.0 1021319
11:00−9ююв41384100 0.0 1021432
14:00−9ю41279100 0.0 1020453
17:00−8ю31278100 0.0 1020430
20:00−9ю31079100 0.0 1020410
11 декабря, сб
сб1123:00−9ю2994100 0.1 1020386
02:00−8ю2895100 0.3 1020349
05:00−9ююв139889 0.1 102168
08:00−8юв119893 0.3 102026
11:00−6вюв1197100 0.2 102142
14:00−6в1298100 0.8 102144
17:00−5вюв1398100 0.7 1021101
20:00−5вюв1398100 1.3 102189
12 декабря, вс
вс1223:00−5юв1398100 0.4 102181
02:00−4юв159898 0.6 1021142
05:00−4юв2598100 0.4 1020177
08:00−4юв2598100 1.8 1020186
11:00−5юв1398100 0.6 101971
14:00−4вюв1398100 1.4 101781
17:00−4всв1198100 1.3 101627
20:00−4вюв1198100 2.2 101428
13 декабря, пн
пн1323:00−3ю2698100 1.3 1014220
02:00−3ююз2698100 2.0 1014209
05:00−4юз259874 0.5 1015144
08:00−10юз119981 0.6 101710
11:00−9ююз25100100 0.0 1018131
14:00−4ю1797100 0.1 1018220
17:00−3ю2795100 0.1 1018248
20:00−3ю379897 0.3 1017298